Weather History for KIKW - January, 2014

Change the Weather History Date:

Saturday, January 25, 2014

  Actual Average (KMBS) Record (KMBS)
Temperature  
Mean Temperature 14 °F 22 °F  
Max Temperature 26 °F 29 °F 43 °F (2002)
Min Temperature 1 °F 15 °F -9 °F (2004)
Degree Days  
Heating Degree Days 52    
Month to date heating degree days  
Since 1 July heating degree days  
Cooling Degree Days 0    
Month to date cooling degree days  
Year to date cooling degree days  
Moisture  
Dew Point 7 °F    
Average Humidity 69    
Maximum Humidity 92    
Minimum Humidity 44    
Precipitation  
Precipitation 0.00 in 0.05 in 0.25 in (1997)
Month to date precipitation 1.43  
Year to date precipitation 1.43  
Snow  
Snow 0.00 in - - ()
Month to date snowfall  
Since 1 July snowfall  
Snow Depth -    
Sea Level Pressure  
Sea Level Pressure 29.43 in    
Wind  
Wind Speed 13 mph (West)    
Max Wind Speed 21 mph    
Max Gust Speed 31 mph    
Visibility 7 miles    
Events Snow    
T = Trace of Precipitation, MM = Missing Value Source: NWS Daily Summary

Daily Weather History Graph

Daily Weather History Graph

Search for Another Location

Airport or City:

Trip Planner

Search our weather history database for the weather conditions in past years. The results will help you decide how hot, cold, wet, or windy it might be!

Date:

Astronomy

Jan. 25, 2014 Rise Set
Actual Time 8:00 AM EST 5:38 PM EST
Civil Twilight 7:29 AM EST 6:09 PM EST
Nautical Twilight 6:54 AM EST 6:44 PM EST
Astronomical Twilight 6:20 AM EST 7:18 PM EST
Moon 2:30 AM EST (1/25) 12:38 PM EST (1/25)
Length of Visible Light 10h 40m
Length of Day
9h 38m
Waning Crescent, 34% of the Moon is Illuminated
Jan 25
Waning Crescent
Jan 30
New
Feb 6
First Quarter
Feb 14
Full
Feb 22
Last Quarter

Hourly Weather History & Observations

Time (EST) Temp. Windchill Dew Point Humidity Pressure Visibility Wind Dir Wind Speed Gust Speed Precip Events Conditions
12:11 AM 19.4 °F 5.0 °F 15.6 °F 85% 29.34 in 3.0 mi SSW 16.1 mph 24.2 mph N/A Snow Light Snow
12:32 AM 19.9 °F 6.7 °F 15.8 °F 84% 29.32 in 3.0 mi SSW 13.8 mph 24.2 mph N/A Snow Light Snow
12:51 AM 19.9 °F 6.2 °F 16.2 °F 85% 29.31 in 3.0 mi SSW 15.0 mph 21.9 mph N/A Snow Light Snow
1:11 AM 20.3 °F 6.6 °F 16.5 °F 85% 29.29 in 3.0 mi SSW 15.0 mph 21.9 mph N/A Snow Light Snow
1:32 AM 20.3 °F 6.6 °F 16.7 °F 86% 29.28 in 2.5 mi SSW 15.0 mph 21.9 mph N/A Snow Light Snow
1:51 AM 21.0 °F 8.6 °F 17.4 °F 86% 29.27 in 2.5 mi SSW 12.7 mph 19.6 mph N/A Snow Light Snow
2:11 AM 21.2 °F 8.3 °F 17.6 °F 86% 29.25 in 2.5 mi SSW 13.8 mph 25.3 mph N/A Snow Light Snow
2:32 AM 21.7 °F 8.5 °F 18.3 °F 87% 29.25 in 1.8 mi SSW 15.0 mph 21.9 mph N/A Snow Light Snow
2:51 AM 22.1 °F 8.9 °F 18.9 °F 87% 29.24 in 2.0 mi SSW 15.0 mph 21.9 mph N/A Snow Light Snow
3:11 AM 22.5 °F 9.9 °F 19.4 °F 88% 29.23 in 2.0 mi SSW 13.8 mph 21.9 mph N/A Snow Light Snow
3:32 AM 23.0 °F 10.6 °F 19.9 °F 88% 29.23 in 1.8 mi SSW 13.8 mph 18.4 mph N/A Snow Light Snow
3:51 AM 23.4 °F 14.3 °F 20.7 °F 89% 29.22 in 1.2 mi SSW 8.1 mph 19.6 mph N/A Snow Light Snow
4:11 AM 23.7 °F 14.0 °F 21.2 °F 90% 29.22 in 0.8 mi SW 9.2 mph - N/A Snow Light Snow
4:32 AM 23.9 °F 14.2 °F 21.6 °F 91% 29.21 in 2.0 mi SW 9.2 mph - N/A Snow Light Snow
4:51 AM 24.4 °F 15.6 °F 22.3 °F 91% 29.21 in 2.0 mi SW 8.1 mph - N/A Snow Light Snow
5:11 AM 24.8 °F 16.9 °F 22.5 °F 91% 29.21 in 7.0 mi SW 6.9 mph - N/A Snow Light Snow
5:32 AM 24.8 °F 19.1 °F 22.6 °F 91% 29.21 in 3.0 mi WSW 4.6 mph - N/A Snow Light Snow
5:51 AM 25.3 °F 18.5 °F 23.0 °F 91% 29.21 in 5.0 mi SW 5.8 mph - N/A Snow Light Snow
6:11 AM 25.7 °F 19.0 °F 23.5 °F 92% 29.21 in 7.0 mi SW 5.8 mph - N/A Snow Light Snow
6:32 AM 26.1 °F 20.5 °F 23.7 °F 91% 29.21 in 4.0 mi WSW 4.6 mph - N/A Snow Light Snow
6:51 AM 24.3 °F 12.7 °F 21.4 °F 89% 29.24 in 0.8 mi NW 12.7 mph - N/A Snow Snow
7:11 AM 23.9 °F 12.9 °F 18.3 °F 79% 29.25 in 7.0 mi NNW 11.5 mph - N/A   Overcast
7:32 AM 23.4 °F 11.6 °F 15.8 °F 73% 29.25 in 10.0 mi NNW 12.7 mph 21.9 mph N/A   Overcast
7:51 AM 23.0 °F 11.1 °F 16.0 °F 74% 29.26 in 10.0 mi NW 12.7 mph 17.3 mph N/A   Overcast
8:12 AM 23.0 °F 11.7 °F 15.1 °F 72% 29.27 in 10.0 mi NW 11.5 mph 21.9 mph N/A   Overcast
8:31 AM 22.5 °F 8.0 °F 13.8 °F 69% 29.29 in 10.0 mi NW 18.4 mph 27.6 mph N/A   Mostly Cloudy
8:51 AM 21.4 °F 7.5 °F 12.0 °F 67% 29.30 in 5.0 mi NNW 16.1 mph 26.5 mph N/A   Haze
9:12 AM 21.2 °F 6.8 °F 13.1 °F 71% 29.31 in 7.0 mi NW 17.3 mph 20.7 mph N/A Snow Light Snow
9:31 AM 19.8 °F 5.0 °F 12.7 °F 74% 29.33 in 4.0 mi NNW 17.3 mph 26.5 mph N/A Snow Light Snow
9:51 AM 19.2 °F 5.8 °F 9.9 °F 67% 29.33 in 7.0 mi NNW 13.8 mph 25.3 mph N/A   Overcast
10:12 AM 19.0 °F 4.5 °F 8.8 °F 64% 29.34 in 7.0 mi NNW 16.1 mph 27.6 mph N/A   Mostly Cloudy
10:31 AM 18.5 °F 4.9 °F 10.0 °F 70% 29.36 in 4.0 mi NNW 13.8 mph 20.7 mph N/A Snow Light Snow
10:51 AM 17.8 °F 4.6 °F 7.5 °F 64% 29.38 in 10.0 mi NNW 12.7 mph 23.0 mph N/A   Overcast
11:11 AM 18.1 °F 2.4 °F 5.5 °F 58% 29.39 in 7.0 mi NW 18.4 mph 24.2 mph N/A   Overcast
11:31 AM 18.1 °F 1.6 °F 3.6 °F 53% 29.39 in 10.0 mi WNW 20.7 mph 26.5 mph N/A   Mostly Cloudy
11:52 AM 18.7 °F 7.8 °F 3.6 °F 52% 29.40 in 10.0 mi NW 9.2 mph 20.7 mph N/A   Overcast
12:11 PM 18.3 °F 3.1 °F 2.7 °F 51% 29.40 in 7.0 mi NW 17.3 mph 27.6 mph N/A   Overcast
12:31 PM 16.7 °F 0.5 °F 1.9 °F 52% 29.41 in 10.0 mi WNW 18.4 mph 25.3 mph N/A   Overcast
12:52 PM 16.3 °F 1.6 °F 0.1 °F 49% 29.41 in 7.0 mi WNW 15.0 mph 26.5 mph N/A   Overcast
1:11 PM 16.5 °F -0.1 °F 1.4 °F 52% 29.42 in 5.0 mi WNW 19.6 mph 27.6 mph N/A   Haze
1:31 PM 18.1 °F 2.9 °F 2.3 °F 50% 29.42 in 10.0 mi West 17.3 mph 24.2 mph N/A   Mostly Cloudy
1:52 PM 17.1 °F 3.0 °F 6.6 °F 64% 29.43 in 7.0 mi NNW 13.8 mph 24.2 mph N/A   Overcast
2:11 PM 16.5 °F 0.3 °F 5.7 °F 63% 29.43 in 7.0 mi NW 18.4 mph 24.2 mph N/A   Overcast
2:32 PM 14.4 °F 0.2 °F 5.5 °F 68% 29.45 in 4.0 mi WNW 12.7 mph 23.0 mph N/A   Haze
2:51 PM 15.3 °F 0.8 °F -0.4 °F 50% 29.46 in 10.0 mi WNW 13.8 mph 26.5 mph N/A   Mostly Cloudy
3:11 PM 13.8 °F -0.5 °F 1.2 °F 57% 29.48 in 5.0 mi WNW 12.7 mph 31.1 mph N/A   Haze
3:32 PM 14.7 °F -1.1 °F -3.6 °F 44% 29.48 in 10.0 mi WNW 16.1 mph 28.8 mph N/A   Scattered Clouds
3:51 PM 13.1 °F -2.6 °F -3.8 °F 47% 29.50 in 10.0 mi WNW 15.0 mph 20.7 mph N/A   Clear
4:12 PM 13.3 °F -2.4 °F -4.5 °F 45% 29.52 in 10.0 mi WNW 15.0 mph 19.6 mph N/A   Clear
4:31 PM 12.4 °F -4.1 °F -5.6 °F 45% 29.53 in 10.0 mi WNW 16.1 mph 21.9 mph N/A   Clear
4:51 PM 11.7 °F -2.5 °F -5.6 °F 46% 29.54 in 10.0 mi West 11.5 mph 23.0 mph N/A   Scattered Clouds
5:12 PM 11.3 °F -3.6 °F -3.1 °F 52% 29.56 in 10.0 mi WNW 12.7 mph 19.6 mph N/A   Scattered Clouds
5:31 PM 10.8 °F -6.2 °F -4.0 °F 52% 29.58 in 10.0 mi NW 16.1 mph 23.0 mph N/A   Scattered Clouds
5:51 PM 9.5 °F -5.2 °F -4.9 °F 52% 29.60 in 10.0 mi WNW 11.5 mph 19.6 mph N/A   Scattered Clouds
6:12 PM 8.8 °F -6.1 °F -4.5 °F 55% 29.61 in 10.0 mi West 11.5 mph 18.4 mph N/A   Clear
6:31 PM 8.4 °F -6.5 °F -4.2 °F 57% 29.63 in 10.0 mi West 11.5 mph - N/A   Clear
6:51 PM 7.9 °F -4.6 °F -4.2 °F 58% 29.64 in 10.0 mi West 8.1 mph - N/A   Clear
7:12 PM 7.3 °F -7.1 °F -5.1 °F 57% 29.66 in 10.0 mi WNW 10.4 mph 16.1 mph N/A   Clear
7:32 PM 7.0 °F -7.5 °F -5.3 °F 57% 29.67 in 10.0 mi WNW 10.4 mph - N/A   Clear
7:51 PM 6.4 °F -5.2 °F -5.8 °F 57% 29.67 in 10.0 mi WNW 6.9 mph - N/A   Clear
8:11 PM 5.7 °F -3.2 °F -4.9 °F 62% 29.67 in 10.0 mi WNW 4.6 mph - N/A   Clear
8:32 PM 5.0 °F -4.1 °F -4.0 °F 66% 29.67 in 10.0 mi West 4.6 mph - N/A   Clear
8:51 PM 4.5 °F -4.7 °F -3.5 °F 70% 29.68 in 10.0 mi West 4.6 mph - N/A   Clear
9:12 PM 3.7 °F -8.4 °F -3.3 °F 73% 29.69 in 10.0 mi WSW 6.9 mph - N/A   Clear
9:31 PM 3.2 °F -9.1 °F -3.8 °F 73% 29.69 in 10.0 mi WSW 6.9 mph - N/A   Clear
9:51 PM 3.2 °F -9.1 °F -4.0 °F 72% 29.70 in 10.0 mi West 6.9 mph - N/A   Clear
10:12 PM 3.0 °F -8.0 °F -4.0 °F 73% 29.70 in 10.0 mi WSW 5.8 mph - N/A   Scattered Clouds
10:31 PM 2.5 °F -8.6 °F -4.4 °F 73% 29.71 in 10.0 mi WSW 5.8 mph - N/A   Scattered Clouds
10:51 PM 2.3 °F -8.8 °F -4.4 °F 74% 29.71 in 10.0 mi WSW 5.8 mph - N/A   Clear
11:12 PM 2.1 °F -7.4 °F -4.5 °F 74% 29.71 in 10.0 mi WSW 4.6 mph - N/A   Clear
11:31 PM 1.8 °F -7.8 °F -4.5 °F 75% 29.72 in 10.0 mi WSW 4.6 mph - N/A   Scattered Clouds
11:51 PM 1.4 °F -8.3 °F -4.7 °F 76% 29.72 in 10.0 mi SW 4.6 mph - N/A   Mostly Cloudy